Location: Agoumad
(31.1395°N, 8.8865°W)
Time: 01:34:20
(UTC+00:00)

Daily predictions for brighter satellites

Satellite Brightness Start Highest point End
(mag) Time Altitude Azimuth Time Altitude Azimuth Time Altitude Azimuth
SL-16 R/B 4.5 03:06:39 19° NE 03:06:39 19° NE 03:08:15 10° NNE
USA 267 4.1 03:32:34 10° NNE 03:36:57 40° N 03:36:57 40° N
BREEZE-M DEB (TANK) 4.2 03:59:36 52° NNW 03:59:36 52° NNW 04:03:51 10° NE
IDEFIX/ARIANE 42P 4.4 04:01:22 10° N 04:03:12 22° N 04:03:12 22° N
H-2A R/B 3.4 04:06:21 10° SE 04:10:23 38° ENE 04:14:31 10° N
Cosmos 2360 Rocket 2.1 04:15:02 85° E 04:15:02 85° E 04:20:41 10° NNE
Cosmos 1605 Rocket 4.4 04:17:07 10° NNW 04:21:50 46° NW 04:21:50 46° NW
Cosmos 1153 Rocket 4.4 04:18:07 10° N 04:24:29 88° E 04:30:44 10° S
CZ-2C R/B 2.6 04:23:19 10° NNE 04:28:31 76° ESE 04:30:36 37° S
ATLAS CENTAUR Rocket 3.3 04:28:23 35° W 04:34:36 77° S 04:39:32 10° E
Cosmos 2322 Rocket 3.3 04:36:11 28° NW 04:36:11 28° NW 04:39:51 10° N
Cosmos 2263 Rocket 3.9 04:39:24 17° S 04:39:24 17° S 04:40:46 10° S
X-37B 2.5 04:36:50 29° NE 04:36:50 29° NE 04:39:21 10° E
Cosmos 1844 Rocket 4.5 04:34:34 10° N 04:39:34 32° ENE 04:44:33 10° SE
Hubble Space Telescope 2.5 04:39:46 22° SSE 04:39:58 22° SSE 04:43:11 10° ESE
Chandra Rocket (1) 4.3 04:34:07 32° W 04:40:56 51° SSW 04:46:47 10° SE
Cosmos 1898 Rocket 3.4 04:37:02 10° NNW 04:42:16 66° WSW 04:47:31 10° S
SL-16 R/B 3.8 04:48:33 18° NW 04:48:33 18° NW 04:51:12 10° NNW
Cosmos 1437 Rocket 3.0 04:45:54 30° S 04:47:35 66° E 04:51:23 10° NNE
Meteor 1-27 Rocket 4.1 04:47:34 43° W 04:48:12 45° W 04:53:50 10° N
Meteor 1-11 Rocket 3.6 04:43:08 10° NNW 04:48:43 62° W 04:54:11 10° S
Cosmos 858 Rocket 4.3 04:43:39 10° NNW 04:48:51 84° WSW 04:54:03 10° SSE
deb Chang Zheng 4 3.7 04:53:29 10° NNE 04:57:45 71° ESE 05:01:58 10° S
Cosmos 841 Rocket 4.2 04:58:39 32° WNW 04:58:39 32° WNW 05:03:17 10° N
Okean 1-7 4.4 04:57:23 10° SSE 05:01:20 39° E 05:05:17 10° NNE
Cosmos 1937 Rocket 3.4 04:56:35 10° NNW 05:01:38 60° WSW 05:06:40 10° S
Cosmos 2219 Rocket 2.3 04:57:16 10° SSW 05:02:53 75° ESE 05:08:34 10° NNE
Cosmos 2100 Rocket 3.9 04:57:11 10° N 05:03:31 73° W 05:09:48 10° S
Cosmos 1536 3.0 05:00:39 10° NNW 05:04:32 45° W 05:08:23 10° SSW
SJ-6F 4.2 05:01:17 10° N 05:05:21 76° WNW 05:09:14 11° SSW
Intercosmos 25 3.1 05:01:52 10° S 05:06:26 78° W 05:09:47 10° N
Cosmos 1459 Rocket 3.8 05:01:22 10° N 05:07:24 73° W 05:13:25 10° S
FALCON 9 DEB 4.3 05:06:32 19° S 05:08:13 34° SE 05:11:07 10° ENE
CZ-4B R/B 2.1 05:06:29 10° SSE 05:09:32 51° ENE 05:12:41 10° N
ERS-2 2.0 05:08:28 10° S 05:12:05 64° WSW 05:15:43 10° NNW
BREEZE-M DEB (TANK) 3.7 05:10:06 25° SW 05:12:16 83° SE 05:23:01 10° NE
Cosmos 1802 Rocket 3.9 05:07:35 10° N 05:13:51 81° W 05:20:10 10° S
CZ-4B R/B 4.5 05:10:56 10° NNE 05:14:10 32° E 05:17:25 10° SSE
Cosmos 2123 Rocket 3.9 05:09:18 10° S 05:15:31 76° W 05:21:50 10° N
CZ-4B R/B 4.2 05:14:31 10° NNE 05:18:59 83° E 05:23:28 10° S
ADEOS Rocket 3.1 05:12:49 10° S 05:19:43 73° WSW 05:25:56 10° NNW
Cosmos 2237 Rocket 4.1 05:17:51 10° SSE 05:22:45 31° ESE 05:27:40 10° NE
NOSS 3-4 (A) 3.9 05:17:48 10° NNW 05:25:11 81° WSW 05:33:15 10° SSE
NOSS 3-4 (C) 3.9 05:17:55 10° NNW 05:25:17 82° WSW 05:33:20 10° SSE
COSMOS 2428 2.7 05:20:09 10° SSW 05:25:51 79° WNW 05:31:36 10° NNE
Cosmos 1544 3.2 05:24:05 10° N 05:27:40 76° E 05:31:14 10° S
Cosmos 1733 Rocket 3.6 05:25:14 10° NNW 05:29:07 33° W 05:32:58 10° SSW
Cosmos 1743 2.6 05:26:01 10° NNW 05:29:46 60° W 05:33:31 10° S
OAO 3 Rocket 3.3 05:28:00 18° WSW 05:31:38 82° SSE 05:36:36 10° ENE
Cosmos 2242 Rocket 3.7 05:28:42 10° SSW 05:32:57 50° W 05:37:14 10° N
Meteor PRIRODA 4.4 05:30:52 10° NNE 05:34:26 54° E 05:37:58 10° S
Cosmos 2333 Rocket 2.4 05:29:20 10° SW 05:34:54 50° WNW 05:40:30 10° N
Delta 2 Rocket 2.9 05:32:34 18° WSW 05:34:54 65° SSE 05:38:14 10° ENE
METEOR-M 4.1 05:32:51 10° N 05:38:10 69° WNW 05:43:27 10° SSW
Cosmos 1242 Rocket 4.3 05:34:48 10° SSE 05:38:11 37° E 05:41:36 10° NNE
Cosmos 2322 4.4 05:34:46 10° SW 05:39:48 33° WNW 05:44:53 10° N
ADEOS 4.1 05:35:53 10° N 05:40:41 38° WNW 05:45:28 10° SW
Cosmos 1689 Rocket 2.6 05:41:44 10° SSE 05:44:38 62° ENE 05:47:35 10° N
SAR-Lupe-4 3.6 05:41:19 10° S 05:44:50 56° W 05:48:21 10° NNW
Yuri Rocket 3.4 05:41:42 14° WSW 05:45:25 62° S 05:50:44 10° E
H-2A R/B 3.7 05:44:11 10° SW 05:46:27 14° W 05:48:45 10° WNW
H-2A R/B 4.3 05:43:09 10° NNE 05:47:18 38° E 05:51:28 10° SSE
ATLAS 2AS CENTAUR R/B 2.7 05:41:40 10° NW 05:48:46 65° WSW 05:55:16 10° SSE
FALCON 9 DEB 2.9 05:45:50 10° SW 05:48:58 63° NW 05:52:06 10° NE
USA 234 3.3 05:44:51 10° SE 05:51:24 88° NE 05:57:57 10° NW
ALOS 3.1 05:53:48 10° NNW 05:57:51 30° WNW 06:01:53 10° SW
FALCON 9 DEB 3.3 05:55:37 10° WSW 05:58:41 46° NW 06:01:45 10° NNE
Cosmos 2360 Rocket 4.1 05:58:18 10° WNW 05:59:39 11° NW 06:00:59 10° NW
Okean 3 3.6 05:57:46 10° S 06:02:04 88° E 06:06:23 10° N
FENGYUN 3A 4.4 05:58:33 10° N 06:03:15 31° WNW 06:07:58 10° SW
Cosmos 1975 2.9 06:00:04 10° NNW 06:03:58 55° W 06:07:51 10° S
CZ-4C R/B 3.9 05:56:59 10° NNW 06:04:32 58° ENE 06:12:53 10° SE
